This is the latest recevied weather packets stored in our database for station/object WD4IXD-WX. If no packets are shown the sender has not sent any weather packets the latest 10 day(s).
| Time | Temp. | Humidity | Pressure | Rain* | Wind** | Luminosity | Snow |
|---|---|---|---|---|---|---|---|
| 1778181304 | 8.33° C | 44% | 1020.3 hPa | 0 mm | - | 432 W/m² | - |
| 1778181003 | 8.89° C | 44% | 1020.3 hPa | 0 mm | - | 448 W/m² | - |
| 1778180704 | 8.89° C | 43% | 1020.4 hPa | 0 mm | - | 420 W/m² | - |
| 1778180404 | 8.33° C | 43% | 1020.4 hPa | 0 mm | - | 1206 W/m² | - |
| 1778180103 | 8.33° C | 43% | 1020.4 hPa | 0 mm | - | 1245 W/m² | - |
| 1778179804 | 8.33° C | 46% | 1020.4 hPa | 0 mm | - | 294 W/m² | - |
| 1778179503 | 8.33° C | 41% | 1020.4 hPa | 0 mm | - | 262 W/m² | - |
| 1778179204 | 8.33° C | 43% | 1020.5 hPa | 0 mm | - | 1155 W/m² | - |
| 1778178904 | 8.33° C | 45% | 1020.5 hPa | 0 mm | - | 1264 W/m² | - |
| 1778178604 | 8.33° C | 46% | 1020.7 hPa | 0 mm | - | 1229 W/m² | - |
| 1778178304 | 7.78° C | 45% | 1020.7 hPa | 0 mm | - | 1213 W/m² | - |
| 1778178004 | 7.78° C | 47% | 1020.6 hPa | 0 mm | - | 1259 W/m² | - |
| 1778177704 | 7.22° C | 47% | 1020.7 hPa | 0 mm | - | 279 W/m² | - |
| 1778177404 | 7.22° C | 45% | 1020.8 hPa | 0 mm | - | 278 W/m² | - |
| 1778177104 | 7.78° C | 46% | 1020.8 hPa | 0 mm | - | 292 W/m² | - |
| 1778176804 | 7.78° C | 44% | 1020.8 hPa | 0 mm | - | 990 W/m² | - |
| 1778176504 | 7.22° C | 44% | 1020.8 hPa | 0 mm | - | 1042 W/m² | - |
| 1778176204 | 7.78° C | 44% | 1020.9 hPa | 0 mm | - | 1032 W/m² | - |
| 1778175904 | 7.78° C | 45% | 1020.9 hPa | 0 mm | - | 1042 W/m² | - |
| 1778175604 | 7.22° C | 47% | 1020.9 hPa | 0 mm | - | 1032 W/m² | - |
| 1778175304 | 6.67° C | 47% | 1021 hPa | 0 mm | - | 1030 W/m² | - |
| 1778175004 | 6.67° C | 45% | 1020.9 hPa | 0 mm | - | 738 W/m² | - |
| 1778174704 | 6.67° C | 47% | 1021 hPa | 0 mm | - | 875 W/m² | - |
| 1778174404 | 6.67° C | 48% | 1021 hPa | 0 mm | - | 599 W/m² | - |
| 1778174104 | 6.67° C | 47% | 1021 hPa | 0 mm | - | 624 W/m² | - |
* Rain latest hour (hover to see other rain measurements)
** Current wind speed in m/s (hover to see current wind gust speed)